TimeCST,TemperatureF,Dew PointF,Humidity,Sea Level PressureIn,VisibilityMPH,Wind Direction,Wind SpeedMPH,Gust SpeedMPH,PrecipitationIn,Events,Conditions,WindDirDegrees,DateUTC
12:53 AM,50.0,39.0,66,30.03,10.0,NW,17.3,27.6,N/A,,Partly Cloudy,310,2013-02-13 06:53:00
1:48 AM,48.2,39.2,71,30.05,10.0,NW,11.5,-,N/A,,Overcast,320,2013-02-13 07:48:00
1:53 AM,48.9,39.0,69,30.05,10.0,NW,15.0,-,N/A,,Overcast,320,2013-02-13 07:53:00
2:12 AM,48.2,39.2,71,30.06,10.0,WNW,15.0,-,N/A,,Overcast,300,2013-02-13 08:12:00
2:53 AM,46.0,37.0,71,30.06,10.0,NW,15.0,24.2,N/A,,Partly Cloudy,320,2013-02-13 08:53:00
3:34 AM,46.4,35.6,66,30.07,10.0,NNW,10.4,23.0,N/A,,Mostly Cloudy,330,2013-02-13 09:34:00
3:53 AM,45.0,36.0,71,30.06,10.0,NNW,11.5,-,N/A,,Overcast,330,2013-02-13 09:53:00
4:29 AM,44.6,35.6,71,30.07,10.0,NNW,12.7,21.9,N/A,,Scattered Clouds,340,2013-02-13 10:29:00
4:53 AM,44.1,35.1,71,30.06,10.0,NNW,13.8,-,N/A,,Partly Cloudy,340,2013-02-13 10:53:00
5:53 AM,43.0,34.0,71,30.09,10.0,NNW,9.2,-,N/A,,Clear,330,2013-02-13 11:53:00
6:53 AM,42.1,34.0,73,30.11,10.0,NNW,6.9,-,N/A,,Clear,330,2013-02-13 12:53:00
7:53 AM,43.0,35.1,74,30.14,10.0,North,6.9,-,N/A,,Clear,350,2013-02-13 13:53:00
8:53 AM,46.0,36.0,68,30.15,10.0,North,9.2,-,N/A,,Partly Cloudy,360,2013-02-13 14:53:00
9:13 AM,46.4,35.6,66,30.15,10.0,North,13.8,-,N/A,,Mostly Cloudy,350,2013-02-13 15:13:00
9:38 AM,48.2,35.6,62,30.15,10.0,North,11.5,-,N/A,,Scattered Clouds,360,2013-02-13 15:38:00
9:53 AM,48.9,37.0,64,30.15,10.0,NW,13.8,-,N/A,,Scattered Clouds,320,2013-02-13 15:53:00
10:01 AM,48.2,37.4,66,30.15,10.0,NNW,12.7,-,N/A,,Mostly Cloudy,330,2013-02-13 16:01:00
10:53 AM,52.0,37.9,59,30.15,10.0,North,13.8,19.6,N/A,,Scattered Clouds,10,2013-02-13 16:53:00
11:53 AM,53.1,37.9,57,30.14,10.0,NNW,9.2,19.6,N/A,,Clear,330,2013-02-13 17:53:00
12:53 PM,55.0,37.9,53,30.11,10.0,NNW,12.7,17.3,N/A,,Clear,340,2013-02-13 18:53:00
1:53 PM,57.0,37.9,49,30.08,10.0,North,8.1,16.1,N/A,,Clear,360,2013-02-13 19:53:00
2:53 PM,59.0,39.0,48,30.06,10.0,North,6.9,-,N/A,,Clear,350,2013-02-13 20:53:00
3:53 PM,59.0,37.9,46,30.05,10.0,ESE,4.6,-,N/A,,Clear,110,2013-02-13 21:53:00
4:53 PM,57.9,37.0,46,30.05,10.0,North,4.6,-,N/A,,Clear,360,2013-02-13 22:53:00
5:53 PM,55.9,37.0,49,30.05,10.0,North,5.8,-,N/A,,Clear,10,2013-02-13 23:53:00
6:53 PM,52.0,37.0,57,30.07,10.0,NNE,5.8,-,N/A,,Clear,20,2013-02-14 00:53:00
7:53 PM,51.1,37.0,59,30.08,10.0,Calm,Calm,-,N/A,,Clear,0,2013-02-14 01:53:00
8:53 PM,48.0,37.0,66,30.09,10.0,NE,5.8,-,N/A,,Clear,40,2013-02-14 02:53:00
9:53 PM,46.9,37.0,68,30.11,10.0,ENE,3.5,-,N/A,,Clear,70,2013-02-14 03:53:00
10:53 PM,45.0,37.9,76,30.11,10.0,Calm,Calm,-,N/A,,Clear,0,2013-02-14 04:53:00
11:53 PM,44.1,37.0,76,30.09,10.0,Calm,Calm,-,N/A,,Clear,0,2013-02-14 05:53:00